Weather History for Las Vegas, NV

Change the Weather History Date:

Friday, May 2, 2014

  Actual Average Record
Temperature  
Mean Temperature 78 °F 73 °F  
Max Temperature 95 °F 84 °F 107 °F (1947)
Min Temperature 61 °F 62 °F 43 °F (1955)
Degree Days  
Heating Degree Days 0 1  
Month to date heating degree days 0 2  
Since 1 July heating degree days 1511 1945  
Cooling Degree Days 13 8  
Month to date cooling degree days 22 16  
Year to date cooling degree days 249 176  
Growing Degree Days 28 (Base 50)    
Moisture  
Dew Point 10 °F    
Average Humidity 10    
Maximum Humidity 16    
Minimum Humidity 4    
Precipitation  
Precipitation 0.00 in 0.01 in 0.27 in (1982)
Month to date precipitation 0.00 0.01  
Year to date precipitation 0.30 1.90  
Snow  
Snow 0.00 in 0.00 in 0.00 in ()
Month to date snowfall 0.0 0.0  
Since 1 July snowfall 0.0 0.3  
Snow Depth 0.00 in    
Sea Level Pressure  
Sea Level Pressure 29.90 in    
Wind  
Wind Speed 7 mph (SSW)    
Max Wind Speed 15 mph    
Max Gust Speed 18 mph    
Visibility 10 miles    
Events      
T = Trace of Precipitation, MM = Missing Value Source: NWS Daily Summary

Daily Weather History Graph

Daily Weather History Graph

Search for Another Location

Airport:

Trip Planner

Search our weather history database for the weather conditions in past years. The results will help you decide how hot, cold, wet, or windy it might be!

Date:

Astronomy

May. 02, 2014 Rise Set
Actual Time 5:46 AM PDT 7:28 PM PDT
Civil Twilight 5:19 AM PDT 7:56 PM PDT
Nautical Twilight 4:46 AM PDT 8:29 PM PDT
Astronomical Twilight 4:10 AM PDT 9:05 PM PDT
Moon 8:29 AM PDT (5/2) 10:52 PM PDT (5/2)
Length of Visible Light 14h 37m
Length of Day
13h 42m
Waxing Crescent, 13% of the Moon is Illuminated
May 2
Waxing Crescent
May 6
First Quarter
May 14
Full
May 21
Last Quarter
May 28
New

Hourly Weather History & Observations

Time (PDT) Temp. Dew Point Humidity Pressure Visibility Wind Dir Wind Speed Gust Speed Precip Events Conditions
12:56 AM 69.1 °F 10.9 °F 11% 29.96 in 10.0 mi SSW 5.8 mph - N/A   Scattered Clouds
1:56 AM 66.9 °F 12.9 °F 12% 29.96 in 10.0 mi SSW 6.9 mph - N/A   Scattered Clouds
2:56 AM 64.9 °F 17.1 °F 16% 29.96 in 10.0 mi SW 6.9 mph - N/A   Mostly Cloudy
3:56 AM 64.0 °F 12.9 °F 14% 29.97 in 10.0 mi SSW 6.9 mph - N/A   Scattered Clouds
4:56 AM 61.0 °F 10.0 °F 13% 29.98 in 10.0 mi SSW 9.2 mph - N/A   Scattered Clouds
5:56 AM 64.0 °F 12.9 °F 14% 29.99 in 10.0 mi SW 6.9 mph - N/A   Partly Cloudy
6:56 AM 63.0 °F 10.9 °F 13% 30.00 in 10.0 mi SSW 9.2 mph - N/A   Clear
7:56 AM 71.1 °F 12.9 °F 11% 30.00 in 10.0 mi Calm Calm - N/A   Partly Cloudy
8:56 AM 75.0 °F 12.0 °F 9% 30.00 in 10.0 mi Calm Calm - N/A   Partly Cloudy
9:56 AM 78.8 °F 8.6 °F 7% 30.06 in 10.0 mi Variable 4.6 mph - N/A   Partly Cloudy
10:56 AM 82.0 °F 8.1 °F 6% 29.99 in 10.0 mi Variable 3.5 mph - N/A   Clear
11:56 AM 84.9 °F 9.0 °F 6% 29.97 in 10.0 mi SE 5.8 mph - N/A   Clear
12:56 PM 88.0 °F 7.0 °F 5% 29.93 in 10.0 mi Variable 3.5 mph - N/A   Clear
1:56 PM 90.0 °F 7.0 °F 4% 29.90 in 10.0 mi Calm Calm - N/A   Clear
2:56 PM 93.0 °F 8.1 °F 4% 29.86 in 10.0 mi Calm Calm - N/A   Clear
3:56 PM 93.0 °F 6.1 °F 4% 29.83 in 10.0 mi South 4.6 mph - N/A   Clear
4:56 PM 93.9 °F 7.0 °F 4% 29.81 in 10.0 mi Variable 6.9 mph - N/A   Clear
5:56 PM 93.0 °F 6.1 °F 4% 29.79 in 10.0 mi SSW 10.4 mph - N/A   Clear
6:56 PM 91.9 °F 6.1 °F 4% 29.78 in 10.0 mi SW 9.2 mph - N/A   Clear
7:56 PM 89.1 °F 8.1 °F 5% 29.78 in 10.0 mi SSW 9.2 mph - N/A   Clear
8:56 PM 84.0 °F 9.0 °F 6% 29.80 in 10.0 mi South 9.2 mph - N/A   Clear
9:56 PM 81.0 °F 10.9 °F 7% 29.80 in 10.0 mi SSW 10.4 mph - N/A   Clear
10:56 PM 81.0 °F 10.9 °F 7% 29.79 in 10.0 mi SW 10.4 mph - N/A   Partly Cloudy
11:56 PM 77.0 °F 12.9 °F 9% 29.79 in 10.0 mi SSW 9.2 mph - N/A   Partly Cloudy